THY2JT LIRF-LTFM

Flight info

Callsign THY2JT
Flight time 2h 27m
Altitude 37000
Route XIBRI5AXOKUNO5R/25 OKUNO DCT TINIX DCT ATRUP DCT ENFAR DCT VELBA DCT AYTEK
Aircraft B77W/H-SDE1E2E3FGHIJ2J3J4J5M1RWXY/LB1D1

Departure

Time 2026-05-04 16:18
Airport Rome–Fiumicino Leonardo da Vinci International Airport (LIRF)

Arrival

Time 2026-05-04 18:45
Airport İstanbul Airport (LTFM)
Time Latitude Longitude Altitude Speed Heading
2026-05-04 15:05 41.79869 12.24748 19 ft 0 kts 205°
2026-05-04 16:01 41.79881 12.24755 19 ft 4 kts 202°
2026-05-04 16:01 41.79906 12.24768 19 ft 4 kts 200°
2026-05-04 16:01 41.79931 12.24781 19 ft 4 kts 208°
2026-05-04 16:02 41.79950 12.24802 19 ft 2 kts 249°
2026-05-04 16:02 41.79950 12.24804 19 ft 0 kts 250°
2026-05-04 16:08 41.79961 12.24730 19 ft 9 kts 284°
2026-05-04 16:09 41.79927 12.24539 19 ft 14 kts 249°
2026-05-04 16:09 41.79964 12.24395 19 ft 11 kts 31°
2026-05-04 16:10 41.80031 12.24594 18 ft 12 kts 71°
2026-05-04 16:11 41.80158 12.24775 19 ft 9 kts 14°
2026-05-04 16:11 41.80197 12.24837 18 ft 9 kts 72°
2026-05-04 16:12 41.80230 12.25158 18 ft 13 kts 71°
2026-05-04 16:12 41.80327 12.25511 20 ft 13 kts 69°
2026-05-04 16:13 41.80393 12.25745 22 ft 13 kts 69°
2026-05-04 16:13 41.80459 12.25980 20 ft 13 kts 69°
2026-05-04 16:14 41.80525 12.26216 21 ft 13 kts 69°
2026-05-04 16:14 41.80589 12.26451 21 ft 13 kts 70°
2026-05-04 16:15 41.80684 12.26806 19 ft 13 kts 70°
2026-05-04 16:16 41.80745 12.27018 18 ft 10 kts 52°
2026-05-04 16:16 41.80945 12.26968 18 ft 9 kts 320°
2026-05-04 16:17 41.80863 12.26582 24 ft 68 kts 249°
2026-05-04 16:18 41.79764 12.22563 1000 ft 190 kts 250°
2026-05-04 16:18 41.79284 12.20973 1926 ft 180 kts 236°
2026-05-04 16:19 41.76268 12.18077 3995 ft 183 kts 216°
2026-05-04 16:19 41.73918 12.16076 4476 ft 231 kts 182°
2026-05-04 16:20 41.68560 12.16921 6280 ft 272 kts 175°
2026-05-04 16:20 41.65043 12.18510 7849 ft 282 kts 130°
2026-05-04 16:21 41.64987 12.25980 10372 ft 293 kts 60°
2026-05-04 16:22 41.67337 12.30975 10976 ft 346 kts 58°
2026-05-04 16:22 41.71468 12.39579 13367 ft 376 kts 58°
2026-05-04 16:23 41.75738 12.48666 15684 ft 393 kts 58°
2026-05-04 16:24 41.82402 12.60588 18566 ft 409 kts 40°
2026-05-04 16:25 41.87021 12.65061 19901 ft 416 kts 33°
2026-05-04 16:26 41.96732 12.74087 22410 ft 432 kts 34°
2026-05-04 16:26 42.03816 12.81803 24087 ft 445 kts 48°
2026-05-04 16:27 42.07258 12.88805 25113 ft 453 kts 61°
2026-05-04 16:28 42.11839 13.00108 26569 ft 463 kts 60°
2026-05-04 16:28 42.16359 13.11683 27923 ft 471 kts 61°
2026-05-04 16:29 42.22523 13.27515 29462 ft 481 kts 61°
2026-05-04 16:30 42.27199 13.39595 30504 ft 487 kts 61°
2026-05-04 16:31 42.30341 13.47738 31041 ft 491 kts 61°
2026-05-04 16:31 42.34242 13.60494 32086 ft 492 kts 79°
2026-05-04 16:32 42.34244 13.74287 33010 ft 493 kts 94°
2026-05-04 16:33 42.33649 13.83528 33587 ft 493 kts 94°
2026-05-04 16:33 42.33087 13.92772 34103 ft 494 kts 94°
2026-05-04 16:34 42.32559 14.02019 34630 ft 493 kts 94°
2026-05-04 16:34 42.32299 14.06635 34903 ft 493 kts 93°
2026-05-04 16:35 42.31509 14.20468 35644 ft 492 kts 94°
2026-05-04 16:35 42.30695 14.34268 36332 ft 490 kts 93°
2026-05-04 16:36 42.30423 14.38862 36499 ft 492 kts 94°
2026-05-04 16:36 42.29872 14.48021 37109 ft 485 kts 94°
2026-05-04 16:37 42.29045 14.61519 37074 ft 479 kts 94°
2026-05-04 16:38 42.27927 14.79418 37080 ft 477 kts 94°
2026-05-04 16:39 42.26488 15.01742 37100 ft 478 kts 94°
2026-05-04 16:40 42.25307 15.19622 37100 ft 478 kts 94°
2026-05-04 16:41 42.23794 15.41873 37108 ft 477 kts 94°
2026-05-04 16:43 42.22344 15.62648 37099 ft 477 kts 94°
2026-05-04 16:43 42.21393 15.75993 37106 ft 476 kts 94°
2026-05-04 16:45 42.19443 16.02661 37104 ft 476 kts 94°
2026-05-04 16:46 42.17772 16.24864 37098 ft 476 kts 95°
2026-05-04 16:47 42.16405 16.42610 37097 ft 476 kts 95°
2026-05-04 16:48 42.15016 16.60292 37098 ft 475 kts 95°
2026-05-04 16:49 42.13596 16.77995 37098 ft 475 kts 95°
2026-05-04 16:50 42.12153 16.95648 37123 ft 475 kts 95°
2026-05-04 16:51 42.11051 17.08907 37108 ft 475 kts 95°
2026-05-04 16:52 42.09558 17.26577 37119 ft 475 kts 95°
2026-05-04 16:53 42.08420 17.39831 37116 ft 475 kts 95°
2026-05-04 16:54 42.06882 17.57440 37119 ft 475 kts 95°
2026-05-04 16:55 42.04516 17.83963 37118 ft 476 kts 95°
2026-05-04 16:56 42.02495 18.06085 37121 ft 477 kts 95°
2026-05-04 16:57 42.01260 18.19364 37118 ft 476 kts 95°
2026-05-04 16:58 41.99597 18.36991 37117 ft 476 kts 95°
2026-05-04 17:00 41.97044 18.63481 37114 ft 476 kts 95°
2026-05-04 17:01 41.94881 18.85448 37100 ft 476 kts 96°
2026-05-04 17:02 41.93114 19.03050 37100 ft 474 kts 96°
2026-05-04 17:03 41.91776 19.16215 37094 ft 474 kts 96°
2026-05-04 17:03 41.90427 19.29353 37094 ft 473 kts 96°
2026-05-04 17:04 41.88603 19.46823 37097 ft 472 kts 96°
2026-05-04 17:05 41.86763 19.64232 37106 ft 471 kts 96°
2026-05-04 17:06 41.85371 19.77211 37111 ft 470 kts 96°
2026-05-04 17:07 41.84111 19.88825 37102 ft 470 kts 96°
2026-05-04 17:07 41.83010 19.98912 37114 ft 470 kts 96°
2026-05-04 17:08 41.81577 20.11922 37114 ft 470 kts 96°
2026-05-04 17:09 41.80611 20.20588 37123 ft 470 kts 96°
2026-05-04 17:09 41.79640 20.29257 37122 ft 470 kts 96°
2026-05-04 17:10 41.77276 20.50874 37118 ft 469 kts 92°
2026-05-04 17:11 41.77387 20.59568 37112 ft 465 kts 81°
2026-05-04 17:12 41.78647 20.72458 37120 ft 466 kts 80°
2026-05-04 17:13 41.80675 20.94033 37106 ft 467 kts 81°
2026-05-04 17:14 41.82229 21.11267 37100 ft 467 kts 81°
2026-05-04 17:15 41.83382 21.24232 37101 ft 466 kts 82°
2026-05-04 17:16 41.84898 21.41506 37082 ft 465 kts 82°
2026-05-04 17:17 41.86384 21.58747 37083 ft 465 kts 82°
2026-05-04 17:18 41.87838 21.75937 37073 ft 465 kts 82°
2026-05-04 17:19 41.89271 21.93178 37076 ft 464 kts 82°
2026-05-04 17:20 41.90677 22.10416 37084 ft 464 kts 83°
2026-05-04 17:20 41.91710 22.23303 37082 ft 465 kts 83°
2026-05-04 17:21 41.93071 22.40547 37081 ft 464 kts 83°
2026-05-04 17:22 41.93743 22.49184 37084 ft 464 kts 83°
2026-05-04 17:23 41.95064 22.66462 37091 ft 465 kts 83°
2026-05-04 17:24 41.95038 22.79509 37083 ft 467 kts 91°
2026-05-04 17:25 41.94499 22.96923 37084 ft 466 kts 91°
2026-05-04 17:26 41.94034 23.14345 37080 ft 466 kts 91°
2026-05-04 17:27 41.93432 23.35984 37083 ft 464 kts 91°
2026-05-04 17:28 41.92916 23.53283 37080 ft 463 kts 91°
2026-05-04 17:29 41.92146 23.77733 37073 ft 462 kts 91°
2026-05-04 17:31 41.91420 23.99248 37066 ft 461 kts 92°
2026-05-04 17:32 41.90659 24.20777 37066 ft 462 kts 92°
2026-05-04 17:33 41.90020 24.37963 37058 ft 462 kts 92°
2026-05-04 17:34 41.89353 24.55185 37058 ft 462 kts 92°
2026-05-04 17:35 41.88488 24.76690 37058 ft 462 kts 92°
2026-05-04 17:36 41.88128 24.85304 37046 ft 462 kts 92°
2026-05-04 17:36 41.87764 24.93911 37047 ft 461 kts 92°
2026-05-04 17:37 41.87393 25.02511 37044 ft 461 kts 92°
2026-05-04 17:37 41.87014 25.11107 37052 ft 461 kts 92°
2026-05-04 17:38 41.86633 25.19696 37044 ft 461 kts 92°
2026-05-04 17:38 41.86249 25.28212 37044 ft 460 kts 92°
2026-05-04 17:39 41.85651 25.41050 37046 ft 459 kts 92°
2026-05-04 17:39 41.85247 25.49603 37051 ft 459 kts 92°
2026-05-04 17:40 41.84840 25.58138 37040 ft 459 kts 92°
2026-05-04 17:40 41.84427 25.66622 37023 ft 448 kts 92°
2026-05-04 17:41 41.84221 25.70775 36702 ft 444 kts 92°
2026-05-04 17:41 41.84016 25.74884 36284 ft 439 kts 92°
2026-05-04 17:41 41.83813 25.78955 35836 ft 435 kts 92°
2026-05-04 17:41 41.83609 25.82992 35386 ft 432 kts 92°
2026-05-04 17:42 41.83406 25.86992 34929 ft 428 kts 92°
2026-05-04 17:42 41.83204 25.90961 34469 ft 425 kts 92°
2026-05-04 17:42 41.83002 25.94899 34009 ft 422 kts 93°
2026-05-04 17:42 41.82799 25.98817 33551 ft 419 kts 93°
2026-05-04 17:43 41.82597 26.02699 33084 ft 416 kts 92°
2026-05-04 17:43 41.82395 26.06550 32619 ft 413 kts 92°
2026-05-04 17:43 41.82192 26.10387 32163 ft 410 kts 92°
2026-05-04 17:43 41.81991 26.14185 31707 ft 408 kts 92°
2026-05-04 17:44 41.81790 26.17971 31252 ft 406 kts 92°
2026-05-04 17:44 41.81590 26.21682 30814 ft 403 kts 92°
2026-05-04 17:44 41.81389 26.25416 30357 ft 401 kts 92°
2026-05-04 17:44 41.81187 26.29130 29909 ft 398 kts 92°
2026-05-04 17:45 41.80985 26.32817 29469 ft 396 kts 92°
2026-05-04 17:45 41.80730 26.36481 29172 ft 393 kts 98°
2026-05-04 17:45 41.79962 26.39978 28928 ft 391 kts 109°
2026-05-04 17:45 41.78959 26.43346 28664 ft 388 kts 110°
2026-05-04 17:46 41.77962 26.46701 28330 ft 387 kts 109°
2026-05-04 17:46 41.77004 26.50068 27982 ft 385 kts 108°
2026-05-04 17:46 41.76077 26.53424 27667 ft 384 kts 108°
2026-05-04 17:46 41.75150 26.56775 27357 ft 382 kts 110°
2026-05-04 17:47 41.73940 26.59946 27024 ft 383 kts 120°
2026-05-04 17:47 41.72448 26.62907 26704 ft 383 kts 123°
2026-05-04 17:47 41.70905 26.65794 26387 ft 381 kts 123°
2026-05-04 17:47 41.69385 26.68688 26097 ft 379 kts 122°
2026-05-04 17:48 41.67910 26.71600 25822 ft 377 kts 121°
2026-05-04 17:48 41.66460 26.74511 25510 ft 375 kts 121°
2026-05-04 17:48 41.65006 26.77408 25188 ft 371 kts 125°
2026-05-04 17:48 41.63114 26.79745 25054 ft 373 kts 146°
2026-05-04 17:49 41.60736 26.81105 24708 ft 382 kts 166°
2026-05-04 17:49 41.58105 26.81657 24436 ft 385 kts 170°
2026-05-04 17:49 41.55445 26.82169 24113 ft 387 kts 169°
2026-05-04 17:49 41.52789 26.82716 23781 ft 384 kts 168°
2026-05-04 17:50 41.50270 26.83714 23444 ft 374 kts 149°
2026-05-04 17:50 41.48251 26.85795 23163 ft 363 kts 128°
2026-05-04 17:50 41.46861 26.88556 22882 ft 356 kts 113°
2026-05-04 17:50 41.46051 26.91621 22587 ft 349 kts 97°
2026-05-04 17:51 41.45749 26.94806 22322 ft 345 kts 93°
2026-05-04 17:51 41.45521 26.97983 22037 ft 344 kts 93°
2026-05-04 17:51 41.45287 27.01146 21755 ft 343 kts 93°
2026-05-04 17:51 41.45029 27.04311 21476 ft 343 kts 94°
2026-05-04 17:52 41.44755 27.07471 21201 ft 343 kts 94°
2026-05-04 17:52 41.44477 27.10625 20925 ft 342 kts 94°
2026-05-04 17:52 41.44198 27.13780 20643 ft 342 kts 94°
2026-05-04 17:52 41.43920 27.16926 20364 ft 342 kts 94°
2026-05-04 17:53 41.43640 27.20074 20083 ft 342 kts 94°
2026-05-04 17:53 41.43359 27.23218 19808 ft 341 kts 94°
2026-05-04 17:53 41.43079 27.26365 19542 ft 341 kts 94°
2026-05-04 17:53 41.42799 27.29498 19258 ft 340 kts 94°
2026-05-04 17:54 41.42519 27.32620 18973 ft 339 kts 94°
2026-05-04 17:54 41.42240 27.35724 18693 ft 337 kts 94°
2026-05-04 17:54 41.41960 27.38823 18425 ft 336 kts 94°
2026-05-04 17:54 41.41689 27.41914 18039 ft 337 kts 92°
2026-05-04 17:55 41.41693 27.45019 17636 ft 333 kts 82°
2026-05-04 17:55 41.42052 27.48030 17345 ft 326 kts 74°
2026-05-04 17:55 41.42623 27.50914 17065 ft 320 kts 72°
2026-05-04 17:55 41.43194 27.53752 16790 ft 314 kts 72°
2026-05-04 17:56 41.43752 27.56553 16525 ft 311 kts 72°
2026-05-04 17:56 41.44296 27.59320 16264 ft 308 kts 73°
2026-05-04 17:56 41.44836 27.62088 16012 ft 309 kts 72°
2026-05-04 17:56 41.45373 27.64838 15758 ft 312 kts 72°
2026-05-04 17:57 41.45924 27.67649 15498 ft 314 kts 72°
2026-05-04 17:57 41.46475 27.70467 15227 ft 313 kts 72°
2026-05-04 17:57 41.47012 27.73271 14953 ft 312 kts 72°
2026-05-04 17:57 41.47549 27.76078 14698 ft 312 kts 72°
2026-05-04 17:58 41.48081 27.78849 14430 ft 304 kts 73°
2026-05-04 17:58 41.48298 27.81619 14146 ft 304 kts 94°
2026-05-04 17:58 41.47652 27.84324 13907 ft 313 kts 115°
2026-05-04 17:58 41.46298 27.86655 13606 ft 324 kts 134°
2026-05-04 17:59 41.44564 27.88594 13302 ft 326 kts 137°
2026-05-04 17:59 41.42784 27.90484 12992 ft 329 kts 138°
2026-05-04 17:59 41.39196 27.94237 12361 ft 325 kts 138°
2026-05-04 18:00 41.37426 27.96107 12018 ft 324 kts 138°
2026-05-04 18:00 41.35696 27.97956 11683 ft 320 kts 137°
2026-05-04 18:00 41.33968 27.99803 11378 ft 317 kts 138°
2026-05-04 18:00 41.32237 28.01655 11080 ft 312 kts 138°
2026-05-04 18:01 41.30567 28.03434 10770 ft 310 kts 138°
2026-05-04 18:01 41.28898 28.05231 10487 ft 308 kts 138°
2026-05-04 18:01 41.27242 28.07014 10190 ft 305 kts 138°
2026-05-04 18:02 41.23965 28.10532 9597 ft 299 kts 139°
2026-05-04 18:02 41.22353 28.12259 9335 ft 296 kts 139°
2026-05-04 18:02 41.20753 28.13968 9048 ft 294 kts 139°
2026-05-04 18:02 41.19165 28.15663 8772 ft 291 kts 139°
2026-05-04 18:03 41.17598 28.17337 8497 ft 288 kts 139°
2026-05-04 18:03 41.16041 28.19000 8223 ft 285 kts 140°
2026-05-04 18:03 41.14498 28.20649 7953 ft 283 kts 140°
2026-05-04 18:03 41.12973 28.22275 7677 ft 280 kts 140°
2026-05-04 18:04 41.11458 28.23889 7408 ft 278 kts 140°
2026-05-04 18:04 41.09963 28.25484 7146 ft 275 kts 140°
2026-05-04 18:04 41.07027 28.28610 6636 ft 270 kts 140°
2026-05-04 18:05 41.05550 28.30182 6384 ft 268 kts 140°
2026-05-04 18:05 41.04100 28.31729 6127 ft 267 kts 140°
2026-05-04 18:05 41.02673 28.33247 5886 ft 266 kts 140°
2026-05-04 18:05 41.01232 28.34780 5626 ft 265 kts 140°
2026-05-04 18:06 40.98386 28.37798 5133 ft 260 kts 140°
2026-05-04 18:06 40.97143 28.39417 5010 ft 244 kts 123°
2026-05-04 18:06 40.96272 28.41330 5012 ft 243 kts 117°
2026-05-04 18:07 40.95467 28.43298 5007 ft 243 kts 116°
2026-05-04 18:07 40.94663 28.45264 4998 ft 243 kts 117°
2026-05-04 18:07 40.93852 28.47211 4992 ft 242 kts 117°
2026-05-04 18:07 40.93034 28.49150 4991 ft 241 kts 117°
2026-05-04 18:08 40.92210 28.51078 4994 ft 241 kts 118°
2026-05-04 18:08 40.91385 28.52995 4997 ft 240 kts 118°
2026-05-04 18:08 40.90555 28.54913 4996 ft 240 kts 118°
2026-05-04 18:08 40.89726 28.56832 4997 ft 239 kts 116°
2026-05-04 18:09 40.89677 28.60955 5010 ft 235 kts 67°
2026-05-04 18:09 40.90754 28.65067 4996 ft 237 kts 69°
2026-05-04 18:10 40.91282 28.67117 4990 ft 234 kts 69°
2026-05-04 18:10 40.91982 28.68995 4976 ft 224 kts 43°
2026-05-04 18:10 40.93263 28.70147 5009 ft 227 kts 26°
2026-05-04 18:10 40.94670 28.71163 5012 ft 232 kts 27°
2026-05-04 18:11 40.96077 28.72202 5001 ft 230 kts 27°
2026-05-04 18:11 40.97495 28.73107 4975 ft 220 kts 11°
2026-05-04 18:11 40.98972 28.73283 4995 ft 209 kts
2026-05-04 18:11 41.00407 28.73326 4986 ft 204 kts 359°
2026-05-04 18:12 41.01821 28.73328 4992 ft 203 kts 359°
2026-05-04 18:12 41.03262 28.73303 4746 ft 210 kts 358°
2026-05-04 18:12 41.04708 28.73272 4484 ft 207 kts 358°
2026-05-04 18:12 41.06132 28.73240 4254 ft 202 kts 359°
2026-05-04 18:13 41.07541 28.73208 3964 ft 201 kts 359°
2026-05-04 18:13 41.08920 28.73176 3681 ft 194 kts 359°
2026-05-04 18:13 41.11478 28.73116 3203 ft 178 kts 359°
2026-05-04 18:14 41.12681 28.73089 2951 ft 165 kts 359°
2026-05-04 18:14 41.13801 28.73061 2763 ft 160 kts
2026-05-04 18:14 41.14901 28.73037 2543 ft 161 kts
2026-05-04 18:15 41.17166 28.72989 2107 ft 154 kts 359°
2026-05-04 18:15 41.19176 28.72939 1726 ft 145 kts 358°
2026-05-04 18:15 41.20176 28.72922 1520 ft 143 kts 359°
2026-05-04 18:16 41.21162 28.72930 1330 ft 141 kts 358°
2026-05-04 18:16 41.22143 28.72905 1149 ft 141 kts 358°
2026-05-04 18:16 41.23128 28.72868 956 ft 141 kts 359°
2026-05-04 18:17 41.24717 28.72803 697 ft 136 kts 357°
2026-05-04 18:17 41.25684 28.72778 515 ft 140 kts 358°
2026-05-04 18:17 41.27651 28.72755 573 ft 152 kts
2026-05-04 18:18 41.28614 28.72833 2113 ft 131 kts
2026-05-04 18:18 41.29448 28.73018 2932 ft 126 kts 12°
2026-05-04 18:18 41.30371 28.73256 3292 ft 139 kts 359°
2026-05-04 18:18 41.31309 28.73043 3882 ft 138 kts 353°
2026-05-04 18:19 41.33221 28.72830 4497 ft 137 kts 358°
2026-05-04 18:19 41.34199 28.72783 4471 ft 143 kts 359°
2026-05-04 18:19 41.35185 28.72692 4428 ft 146 kts 352°
2026-05-04 18:20 41.36220 28.72317 4778 ft 157 kts 339°
2026-05-04 18:20 41.37107 28.71688 5829 ft 141 kts 336°
2026-05-04 18:20 41.38172 28.71468 6069 ft 171 kts
2026-05-04 18:20 41.39434 28.71676 6184 ft 207 kts
2026-05-04 18:21 41.40995 28.71912 5926 ft 241 kts
2026-05-04 18:21 41.42682 28.72174 5627 ft 244 kts
2026-05-04 18:21 41.44353 28.72434 5368 ft 239 kts
2026-05-04 18:21 41.45948 28.72103 5184 ft 233 kts 335°
2026-05-04 18:22 41.47286 28.70870 5121 ft 236 kts 320°
2026-05-04 18:22 41.48501 28.69376 5072 ft 239 kts 319°
2026-05-04 18:22 41.49708 28.67844 5026 ft 240 kts 318°
2026-05-04 18:22 41.50943 28.66377 4987 ft 233 kts 330°
2026-05-04 18:23 41.52420 28.65566 5004 ft 229 kts 345°
2026-05-04 18:23 41.53974 28.65046 5003 ft 231 kts 348°
2026-05-04 18:23 41.55545 28.64557 5006 ft 232 kts 348°
2026-05-04 18:23 41.57126 28.64063 5006 ft 234 kts 348°
2026-05-04 18:24 41.58713 28.63559 5007 ft 236 kts 347°
2026-05-04 18:24 41.60310 28.63042 5003 ft 237 kts 347°
2026-05-04 18:24 41.61913 28.62520 5002 ft 237 kts 347°
2026-05-04 18:24 41.63430 28.61750 4981 ft 233 kts 323°
2026-05-04 18:25 41.64385 28.60007 5006 ft 238 kts 292°
2026-05-04 18:25 41.64641 28.57802 5014 ft 244 kts 270°
2026-05-04 18:25 41.64212 28.55589 5009 ft 252 kts 244°
2026-05-04 18:25 41.63063 28.53814 5006 ft 257 kts 216°
2026-05-04 18:26 41.61414 28.52927 5006 ft 256 kts 191°
2026-05-04 18:26 41.59649 28.52525 5013 ft 259 kts 189°
2026-05-04 18:26 41.57874 28.52135 5013 ft 262 kts 189°
2026-05-04 18:26 41.56066 28.51746 5010 ft 264 kts 189°
2026-05-04 18:27 41.54252 28.51351 4998 ft 262 kts 189°
2026-05-04 18:27 41.52467 28.50961 4986 ft 258 kts 189°
2026-05-04 18:27 41.50692 28.50569 4995 ft 262 kts 189°
2026-05-04 18:27 41.48834 28.50153 5015 ft 278 kts 189°
2026-05-04 18:28 41.46912 28.49726 5010 ft 281 kts 189°
2026-05-04 18:28 41.44979 28.49293 5003 ft 282 kts 190°
2026-05-04 18:28 41.43053 28.48860 4997 ft 281 kts 189°
2026-05-04 18:28 41.41131 28.48428 4991 ft 280 kts 189°
2026-05-04 18:29 41.39211 28.48002 4991 ft 279 kts 189°
2026-05-04 18:29 41.37302 28.47573 4999 ft 279 kts 190°
2026-05-04 18:29 41.35389 28.47141 4995 ft 279 kts 190°
2026-05-04 18:29 41.33480 28.46710 4997 ft 278 kts 190°
2026-05-04 18:30 41.29657 28.45849 4999 ft 279 kts 190°
2026-05-04 18:30 41.27742 28.45418 4999 ft 279 kts 190°
2026-05-04 18:30 41.25827 28.44988 5001 ft 279 kts 190°
2026-05-04 18:31 41.23910 28.44557 4989 ft 279 kts 190°
2026-05-04 18:31 41.21995 28.44127 4993 ft 279 kts 190°
2026-05-04 18:31 41.20075 28.43698 4986 ft 280 kts 190°
2026-05-04 18:31 41.18158 28.43269 4988 ft 280 kts 190°
2026-05-04 18:32 41.16239 28.42838 4988 ft 280 kts 190°
2026-05-04 18:32 41.14320 28.42407 4987 ft 280 kts 190°
2026-05-04 18:32 41.12421 28.41979 4987 ft 280 kts 190°
2026-05-04 18:32 41.10501 28.41553 4988 ft 279 kts 190°
2026-05-04 18:33 41.08588 28.41126 4984 ft 276 kts 190°
2026-05-04 18:33 41.06732 28.40712 4963 ft 264 kts 190°
2026-05-04 18:33 41.04976 28.40462 4944 ft 246 kts 172°
2026-05-04 18:33 41.03432 28.41387 4987 ft 247 kts 136°
2026-05-04 18:34 41.02201 28.42963 4995 ft 247 kts 135°
2026-05-04 18:34 41.00928 28.44502 4987 ft 248 kts 136°
2026-05-04 18:34 40.99642 28.46029 4984 ft 249 kts 136°
2026-05-04 18:34 40.98347 28.47555 4977 ft 248 kts 136°
2026-05-04 18:35 40.97061 28.49067 4969 ft 247 kts 137°
2026-05-04 18:35 40.95778 28.50576 4957 ft 243 kts 134°
2026-05-04 18:35 40.94939 28.52412 4953 ft 231 kts 100°
2026-05-04 18:35 40.94635 28.54521 4978 ft 239 kts 99°
2026-05-04 18:36 40.94260 28.56687 4975 ft 242 kts 102°
2026-05-04 18:36 40.93846 28.58832 4963 ft 240 kts 102°
2026-05-04 18:36 40.93421 28.60966 4951 ft 238 kts 103°
2026-05-04 18:36 40.93034 28.63066 4936 ft 231 kts 92°
2026-05-04 18:37 40.93359 28.65058 4958 ft 228 kts 56°
2026-05-04 18:37 40.94298 28.66760 4970 ft 232 kts 52°
2026-05-04 18:37 40.95216 28.68519 4944 ft 224 kts 54°
2026-05-04 18:37 40.96039 28.70175 4929 ft 212 kts 54°
2026-05-04 18:38 40.96909 28.71695 4930 ft 204 kts 37°
2026-05-04 18:38 40.98112 28.72680 4962 ft 205 kts 27°
2026-05-04 18:38 40.99418 28.73339 4935 ft 196 kts
2026-05-04 18:38 41.00747 28.73331 4996 ft 188 kts 359°
2026-05-04 18:39 41.02043 28.73320 4946 ft 185 kts 359°
2026-05-04 18:39 41.03341 28.73301 4734 ft 188 kts 359°
2026-05-04 18:39 41.04639 28.73274 4500 ft 186 kts 359°
2026-05-04 18:39 41.05920 28.73244 4250 ft 182 kts 359°
2026-05-04 18:40 41.07169 28.73218 4007 ft 175 kts 359°
2026-05-04 18:40 41.08318 28.73190 3820 ft 160 kts 359°
2026-05-04 18:40 41.09444 28.73165 3604 ft 163 kts 359°
2026-05-04 18:40 41.10573 28.73137 3379 ft 161 kts 359°
2026-05-04 18:41 41.11683 28.73111 3164 ft 158 kts 359°
2026-05-04 18:41 41.12782 28.73087 2944 ft 158 kts 359°
2026-05-04 18:41 41.13889 28.73061 2749 ft 161 kts
2026-05-04 18:41 41.15017 28.73035 2521 ft 163 kts
2026-05-04 18:42 41.16164 28.73009 2318 ft 166 kts
2026-05-04 18:42 41.17319 28.72984 2085 ft 157 kts 359°
2026-05-04 18:42 41.18345 28.72959 1876 ft 142 kts 358°
2026-05-04 18:42 41.19336 28.72937 1714 ft 144 kts 358°
2026-05-04 18:43 41.20338 28.72912 1502 ft 144 kts 358°
2026-05-04 18:43 41.21336 28.72909 1269 ft 143 kts 359°
2026-05-04 18:43 41.22321 28.72900 1090 ft 141 kts 357°
2026-05-04 18:43 41.23308 28.72864 912 ft 143 kts 357°
2026-05-04 18:44 41.24291 28.72843 737 ft 139 kts 358°
2026-05-04 18:44 41.24939 28.72823 613 ft 136 kts 358°
2026-05-04 18:44 41.26185 28.72772 400 ft 132 kts 358°
2026-05-04 18:44 41.27097 28.72754 341 ft 130 kts 360°
2026-05-04 18:45 41.27870 28.72738 336 ft 89 kts 359°
2026-05-04 18:45 41.28340 28.72726 335 ft 53 kts 359°
2026-05-04 18:45 41.28662 28.72728 338 ft 42 kts 358°
2026-05-04 18:45 41.28932 28.72720 334 ft 38 kts 359°
2026-05-04 18:46 41.29197 28.72716 339 ft 37 kts 360°
2026-05-04 18:46 41.29435 28.72730 335 ft 27 kts
2026-05-04 18:46 41.29493 28.72813 338 ft 11 kts 89°
2026-05-04 18:46 41.29489 28.72884 338 ft 7 kts 113°
2026-05-04 18:47 41.29445 28.72922 339 ft 10 kts 169°
2026-05-04 18:47 41.29344 28.72929 339 ft 20 kts 179°
2026-05-04 18:47 41.29174 28.72935 335 ft 27 kts 178°
2026-05-04 18:47 41.29004 28.72940 338 ft 18 kts 179°
2026-05-04 18:48 41.28877 28.72943 334 ft 18 kts 178°
2026-05-04 18:48 41.28750 28.72946 334 ft 18 kts 180°
2026-05-04 18:48 41.28623 28.72947 334 ft 18 kts 179°
2026-05-04 18:48 41.28496 28.72950 334 ft 18 kts 178°
2026-05-04 18:49 41.28369 28.72954 334 ft 18 kts 179°
2026-05-04 18:49 41.28243 28.72957 335 ft 18 kts 179°
2026-05-04 18:49 41.28116 28.72959 337 ft 18 kts 179°
2026-05-04 18:49 41.27989 28.72962 335 ft 18 kts 179°
2026-05-04 18:50 41.27863 28.72964 333 ft 18 kts 179°
2026-05-04 18:50 41.27735 28.72967 334 ft 18 kts 178°
2026-05-04 18:50 41.27609 28.72971 336 ft 18 kts 179°
2026-05-04 18:50 41.27475 28.72974 338 ft 20 kts 179°
2026-05-04 18:51 41.27354 28.72977 339 ft 17 kts 179°
2026-05-04 18:51 41.27237 28.72981 333 ft 15 kts 178°
2026-05-04 18:51 41.27130 28.72983 334 ft 15 kts 179°
2026-05-04 18:51 41.27029 28.72985 335 ft 13 kts 179°
2026-05-04 18:52 41.26966 28.73019 334 ft 10 kts 123°
2026-05-04 18:52 41.26955 28.73111 337 ft 10 kts 91°
2026-05-04 18:52 41.26954 28.73212 339 ft 11 kts 89°
2026-05-04 18:52 41.26956 28.73319 335 ft 12 kts 89°
2026-05-04 18:53 41.26958 28.73435 335 ft 13 kts 89°
2026-05-04 18:53 41.26960 28.73555 335 ft 13 kts 89°
2026-05-04 18:53 41.26963 28.73683 337 ft 14 kts 88°
2026-05-04 18:53 41.26965 28.73795 338 ft 9 kts 88°
2026-05-04 18:54 41.26931 28.73863 336 ft 10 kts 158°
2026-05-04 18:54 41.26878 28.73824 333 ft 10 kts 245°
2026-05-04 18:54 41.26874 28.73731 334 ft 10 kts 268°
2026-05-04 18:54 41.26867 28.73648 339 ft 8 kts 245°
2026-05-04 18:55 41.26821 28.73617 337 ft 6 kts 189°
2026-05-04 18:55 41.26785 28.73615 335 ft 3 kts 181°
2026-05-04 18:55 41.26772 28.73615 337 ft 1 kts 180°
2026-05-04 18:56 41.26770 28.73615 335 ft 0 kts 180°